[[{"header":{"parameterUnit":"m.s-1","parameterCategory":1,"la1":30.2991,"la2":30.254,"lo1":-89.0895,"lo2":-89.0444,"dy":0.0017,"dx":0.0017,"nx":28,"ny":28,"refTime":"2023-08-19T03:00:00:Z","depth":0,"parameterNumber":2,"parameterNumberName":"U-component_of_WINDS"},"data":[0,0,0,0,0,0,0,0,0,0,0,0,0,0,0,0,0,0,0,0,0,0,0,0,0,0,0,0,0,0,0,0,0,0,0,0,0,0,0,0,0,0,0,0,0,0,0,0,0,0,0,0,0,0,0,0,0,0,2.0737,2.0738,0,2.0864,2.0865,2.0866,2.0861,2.0859,2.0858,2.0856,2.0988,2.0993,2.0998,0,0,0,0,0,0,0,0,0,0,0,0,0,2.049,2.0495,2.0737,2.0738,2.074,2.0863,2.0865,2.0867,2.0861,2.0859,2.0857,2.0855,2.0986,2.0992,2.0998,0,0,0,0,0,0,0,0,0,0,0,0,0,2.0605,2.0496,2.0737,2.0752,2.0755,2.0863,2.0865,2.0867,2.0862,2.0859,2.0857,2.0854,2.0984,2.0991,2.0999,2.1101,0,0,2.1023,2.1026,0,0,0,0,0,0,0,0,2.0599,2.0614,2.0748,2.0751,2.0754,2.0844,2.0826,2.0946,2.0863,2.0821,2.0856,2.0853,2.0942,2.0953,2.0983,2.1107,2.1112,2.1023,2.1028,2.1032,2.1034,0,0,0,0,0,0,0,2.0591,2.0609,2.0787,2.075,2.0754,2.0753,2.0766,2.0849,2.0895,2.0825,2.0825,2.084,2.0943,2.0975,2.0986,2.1114,2.1023,2.103,2.1035,2.1038,2.1324,2.1327,0,0,0,0,0,0,2.0579,2.0602,2.0783,2.0791,2.0668,2.0759,2.0774,2.0818,2.0894,2.0903,2.0842,2.0839,2.0963,2.0977,2.099,2.1111,2.1031,2.1039,2.1043,2.1322,2.1325,2.1328,0,0,0,0,0,0,2.0574,2.0596,2.0778,2.0697,2.072,2.0766,2.0815,2.0822,2.0854,2.0907,2.0915,2.0866,2.0962,2.098,2.1072,2.1116,2.1042,2.1049,2.1318,2.1323,2.1327,2.1356,0,0,0,0,0,0,2.0567,2.0594,2.0633,2.0697,2.0724,2.0858,2.0818,2.0826,2.0867,2.0864,2.0932,2.0941,2.0961,2.1061,2.108,2.1125,2.1055,2.1314,2.132,2.1325,2.1351,2.136,2.1369,0,0,0,0,0,2.0558,2.0637,2.0635,2.0657,2.0774,2.086,2.0875,2.0896,2.0871,2.091,2.0944,2.0939,2.1109,2.107,2.1092,2.114,2.1312,2.1318,2.1325,2.1347,2.1359,2.1368,0,0,0,0,0,0,2.0577,2.0646,2.0644,2.0746,2.0797,2.0859,2.0909,2.0909,2.0969,2.0964,2.0988,2.1004,2.1096,2.1128,2.1084,2.1241,2.1207,2.1218,2.1216,2.1228,2.1236,2.1225,2.1062,0,0,0,0,0,2.0593,2.0658,2.0714,2.0799,2.0824,2.0862,2.0901,2.0913,2.0967,2.0988,2.1029,2.1082,2.1147,2.119,2.1253,2.1356,2.1369,2.14,2.1409,2.1416,2.1425,2.1478,2.1492,2.135,2.135,2.135,0,0,2.0627,2.0673,2.0712,2.0804,2.0844,2.0909,2.0881,2.0952,2.1,2.1,2.1088,2.112,2.1181,2.1278,2.1324,2.1308,2.1467,2.1424,2.143,2.1434,2.1486,2.15,2.1512,2.1355,2.1354,2.1353,0,0,2.0721,2.0763,2.0836,2.0878,2.0939,2.0964,2.0982,2.1043,2.1064,2.1153,2.1153,2.1212,2.1324,2.1366,2.1402,2.151,2.1507,2.1531,2.1576,2.1628,2.1639,2.1649,2.1685,2.1697,2.154,2.154,2.154,0,2.0755,2.0853,2.0875,2.0945,2.0984,2.0986,2.1059,2.1099,2.1178,2.1205,2.1187,2.1325,2.1367,2.1473,2.1498,2.1529,2.1548,2.1522,2.1636,2.1646,2.1656,2.169,2.1703,2.1542,2.1542,2.1542,2.1541,0,2.089,2.0958,2.101,2.1085,2.1131,2.1203,2.1234,2.1278,2.1285,2.1312,2.1401,2.1451,2.1522,2.1549,2.1559,2.1656,2.1643,2.1631,2.1596,2.1671,2.1703,2.1717,2.1545,2.1544,2.1544,2.1543,0,0,2.0999,2.1084,2.1102,2.1135,2.1202,2.1255,2.1327,2.1395,2.1431,2.1486,2.1545,2.1639,2.1626,2.1667,2.1681,2.1728,2.1806,2.1709,2.171,2.1722,2.1912,2.1919,2.1934,2.1805,2.1808,2.181,2.1906,0,2.1098,2.1223,2.1243,2.1353,2.1415,2.1417,2.1479,2.1526,2.1553,2.1609,2.1639,2.1703,2.1684,2.1708,2.1754,2.1786,2.1844,2.178,2.1858,2.1861,2.184,2.1952,2.196,2.2049,2.1919,2.1921,2.1923,0,2.1229,2.1285,2.14,2.1457,2.1484,2.1539,2.1602,2.1656,2.171,2.1726,2.1771,2.1779,2.1852,2.1816,2.1916,2.1872,2.1905,2.1926,2.193,2.1936,2.1894,2.1957,2.2078,2.209,2.1944,2.1942,2.1941,0,2.1292,2.1397,2.1479,2.1507,2.1577,2.1615,2.1645,2.1697,2.1736,2.1792,2.1817,2.1881,2.1916,2.1965,2.199,2.1962,2.2087,2.2054,2.21,2.21,2.2124,2.2122,2.2249,2.2151,2.2151,2.2151,2.215,0,2.1398,2.1468,2.1508,2.1558,2.1635,2.1658,2.1734,2.1764,2.181,2.1865,2.1872,2.1924,2.1955,2.2011,2.2031,2.2108,2.2125,2.2139,2.2143,2.2136,2.2134,2.2157,2.215,2.2154,2.2154,2.2153,2.2152,0,2.1481,2.1511,2.1599,2.1657,2.1673,2.1727,2.1777,2.1825,2.1851,2.192,2.1938,2.1979,2.2045,2.2075,2.2158,2.2171,2.2259,2.226,2.224,2.224,2.2284,2.2278,2.2427,2.2446,2.2339,2.234,2.2341,0,2.1544,2.1598,2.1661,2.1697,2.1729,2.1789,2.1828,2.1853,2.1894,2.1958,2.1998,2.2064,2.2118,2.2223,2.226,2.2323,2.2324,2.2371,2.2333,2.2324,2.232,2.2315,2.232,2.2377,2.2379,2.2379,2.238,0,2.1653,2.1665,2.1721,2.1783,2.1829,2.1879,2.1927,2.1957,2.199,2.2035,2.2102,2.2144,2.2226,2.2291,2.2355,2.2387,2.2388,2.2392,2.2406,2.2398,2.2383,2.2388,2.2255,2.2388,2.2387,2.2387,2.2386,2.2386,2.1727,2.1773,2.1823,2.1885,2.1924,2.1969,2.2016,2.2047,2.2103,2.2171,2.2183,2.2254,2.2305,2.2391,2.2425,2.248,2.2468,2.2489,2.2493,2.2497,2.2498,2.2376,2.2492,2.2492,2.2492,2.2492,2.2492,0,2.1833,2.1865,2.1922,2.1989,2.2037,2.2034,2.2087,2.2128,2.2189,2.2237,2.2289,2.2364,2.2427,2.2468,2.2531,2.2567,2.2569,2.2583,2.2579,2.2585,2.2506,2.2487,2.258,2.258,2.258,2.258,2.258,2.258,2.1893,2.197,2.1988,2.2084,2.2116,2.2184,2.2214,2.2255,2.2292,2.2376,2.2427,2.2454,2.2498,2.2564,2.2621,2.2632,2.2653,2.2666,2.2676,2.2601,2.2591,2.2582,2.2564,2.2672,2.2672,2.275,2.2751,2.2751]},{"header":{"parameterUnit":"m.s-1","parameterCategory":1,"la1":30.2991,"la2":30.254,"lo1":-89.0895,"lo2":-89.0444,"dy":0.0017,"dx":0.0017,"nx":28,"ny":28,"refTime":"2023-08-19T03:00:00:Z","depth":0,"parameterNumber":3,"parameterNumberName":"V-component_of_WINDS"},"data":[0,0,0,0,0,0,0,0,0,0,0,0,0,0,0,0,0,0,0,0,0,0,0,0,0,0,0,0,0,0,0,0,0,0,0,0,0,0,0,0,0,0,0,0,0,0,0,0,0,0,0,0,0,0,0,0,0,0,4.4447,4.4447,0,4.4416,4.4415,4.4415,4.434,4.4338,4.4337,4.4335,4.4304,4.4305,4.4305,0,0,0,0,0,0,0,0,0,0,0,0,0,4.4443,4.4444,4.4447,4.4447,4.4446,4.4416,4.4415,4.4415,4.434,4.4338,4.4336,4.4335,4.4304,4.4305,4.4305,0,0,0,0,0,0,0,0,0,0,0,0,0,4.4432,4.4444,4.4447,4.4405,4.4401,4.4416,4.4415,4.4415,4.4341,4.4338,4.4336,4.4334,4.4304,4.4304,4.4305,4.4358,0,0,4.4308,4.4309,0,0,0,0,0,0,0,0,4.4433,4.4432,4.4412,4.4408,4.4404,4.4379,4.4402,4.4396,4.4341,4.4364,4.4335,4.4332,4.4331,4.433,4.4329,4.4357,4.4355,4.4308,4.4309,4.4309,4.431,0,0,0,0,0,0,0,4.4434,4.4433,4.4435,4.4412,4.4407,4.4388,4.4384,4.4401,4.4361,4.4361,4.4356,4.4353,4.4328,4.4328,4.4327,4.4355,4.4308,4.4309,4.431,4.431,4.4423,4.4425,0,0,0,0,0,0,4.444,4.4434,4.4436,4.4434,4.4413,4.439,4.4386,4.4389,4.436,4.4354,4.4355,4.435,4.4328,4.4326,4.4326,4.4384,4.4309,4.431,4.4311,4.442,4.4423,4.4426,0,0,0,0,0,0,4.444,4.4441,4.4437,4.4432,4.443,4.4393,4.4398,4.439,4.439,4.4356,4.4348,4.4362,4.4326,4.4325,4.435,4.4382,4.4311,4.4311,4.4417,4.4421,4.4425,4.4502,0,0,0,0,0,0,4.4441,4.4442,4.4461,4.4433,4.4431,4.4462,4.44,4.4391,4.4391,4.4384,4.436,4.4354,4.4324,4.4349,4.4351,4.4382,4.4312,4.4414,4.4419,4.4423,4.4496,4.4508,4.4518,0,0,0,0,0,4.4441,4.4485,4.4462,4.4463,4.4455,4.4464,4.4462,4.4426,4.4394,4.4413,4.4392,4.4355,4.4379,4.4352,4.4354,4.4386,4.4412,4.4418,4.4423,4.4492,4.4506,4.4517,0,0,0,0,0,0,4.4518,4.448,4.4455,4.4491,4.4481,4.4451,4.4474,4.4442,4.4441,4.4434,4.439,4.4385,4.4416,4.4404,4.4375,4.4434,4.4389,4.4396,4.4441,4.4454,4.4464,4.4466,4.4313,0,0,0,0,0,4.4539,4.4549,4.4516,4.4551,4.4547,4.4512,4.4514,4.4487,4.4475,4.447,4.445,4.444,4.4445,4.4449,4.4452,4.4495,4.4488,4.4518,4.4528,4.4537,4.4542,4.4562,4.4575,4.4444,4.4444,4.4444,0,0,4.4582,4.4563,4.4572,4.4566,4.4555,4.4566,4.4509,4.4523,4.4531,4.4473,4.4495,4.448,4.4466,4.45,4.4514,4.449,4.4577,4.4544,4.4551,4.4551,4.4569,4.4582,4.4593,4.4448,4.4447,4.4446,0,0,4.4667,4.4655,4.4681,4.4671,4.4655,4.4631,4.4638,4.4612,4.46,4.4621,4.4577,4.4587,4.4597,4.4588,4.4584,4.4666,4.4632,4.4669,4.4723,4.4743,4.4754,4.4763,4.479,4.4801,4.4674,4.4674,4.4675,0,4.4723,4.4738,4.4699,4.4716,4.4714,4.4662,4.4689,4.4681,4.4667,4.4667,4.4641,4.4651,4.4638,4.4669,4.4688,4.4688,4.4694,4.467,4.4755,4.4764,4.4772,4.4797,4.4808,4.4679,4.4678,4.4678,4.4677,0,4.4807,4.4818,4.4842,4.4828,4.483,4.4852,4.4816,4.4822,4.4796,4.4774,4.4797,4.4779,4.4777,4.4783,4.4757,4.4809,4.4795,4.4763,4.4717,4.4789,4.4812,4.4822,4.4685,4.4683,4.4682,4.4681,0,0,4.4937,4.4902,4.4911,4.4904,4.4883,4.489,4.491,4.4908,4.4913,4.4905,4.492,4.493,4.49,4.4896,4.4869,4.4888,4.4951,4.4853,4.4852,4.487,4.5006,4.5028,4.5041,4.4929,4.4931,4.4933,4.5006,0,4.5015,4.5045,4.5011,4.5049,4.5058,4.5009,4.5026,4.5015,4.4996,4.5001,4.4981,4.4987,4.4948,4.4946,4.4962,4.494,4.4978,4.4935,4.4942,4.4942,4.4945,4.5053,4.5077,4.5147,4.5015,4.5017,4.5018,0,4.5109,4.5104,4.5143,4.5118,4.5121,4.5136,4.5131,4.5137,4.5123,4.5108,4.5105,4.5072,4.509,4.5046,4.5069,4.5041,4.5042,4.5032,4.5034,4.5032,4.4983,4.5051,4.5169,4.5179,4.5032,4.5031,4.503,0,4.5197,4.5201,4.5224,4.522,4.5192,4.5204,4.5194,4.5178,4.5178,4.5174,4.5173,4.5172,4.517,4.517,4.5138,4.5109,4.5164,4.5119,4.5152,4.5152,4.5163,4.5163,4.5281,4.5168,4.5168,4.5168,4.5168,0,4.5285,4.531,4.5263,4.5277,4.5304,4.5265,4.5292,4.5277,4.5263,4.5273,4.5232,4.5242,4.5201,4.5207,4.5182,4.5204,4.5205,4.5192,4.5185,4.5195,4.5196,4.5193,4.5187,4.5171,4.517,4.5169,4.5169,0,4.5387,4.5357,4.5378,4.5351,4.5344,4.5365,4.5341,4.5353,4.5332,4.5345,4.5346,4.5313,4.5318,4.5287,4.5287,4.527,4.5304,4.5289,4.5308,4.5302,4.5337,4.5333,4.5455,4.5469,4.535,4.5351,4.5352,0,4.5444,4.5462,4.5436,4.544,4.5431,4.5437,4.5437,4.54,4.5402,4.5388,4.5402,4.5403,4.5402,4.5413,4.5389,4.5388,4.5372,4.5415,4.5372,4.5381,4.5371,4.5369,4.537,4.5424,4.5425,4.5426,4.5427,0,4.5548,4.5532,4.5534,4.553,4.5531,4.5527,4.552,4.5525,4.5485,4.5489,4.5494,4.5493,4.5492,4.5494,4.5489,4.5478,4.5446,4.5442,4.5449,4.5458,4.5467,4.5461,4.533,4.5438,4.5437,4.5436,4.5436,4.5435,4.5628,4.5641,4.5624,4.5627,4.5618,4.5612,4.5622,4.5602,4.5605,4.5601,4.558,4.5588,4.5574,4.5563,4.5555,4.5561,4.5541,4.5552,4.5554,4.5557,4.5562,4.5468,4.5561,4.556,4.556,4.556,4.5559,0,4.5728,4.5715,4.5718,4.5709,4.5711,4.5682,4.5672,4.5676,4.5684,4.5673,4.5673,4.5678,4.568,4.5657,4.5655,4.5665,4.565,4.5665,4.5663,4.5661,4.5582,4.5575,4.5677,4.5677,4.5677,4.5677,4.5677,4.5677,4.578,4.58,4.5782,4.5798,4.5785,4.5792,4.5789,4.5784,4.5775,4.5782,4.5783,4.5768,4.5753,4.575,4.575,4.5743,4.5744,4.5765,4.5753,4.5678,4.5667,4.5656,4.5649,4.5766,4.5766,4.5831,4.5832,4.5832]}]]